Time,TemperatureF,DewpointF,PressureIn,WindDirection,WindDirectionDegrees,WindSpeedMPH,WindSpeedGustMPH,Humidity,HourlyPrecipIn,Conditions,Clouds,dailyrainin,SoftwareType,DateUTC
2013-01-01 00:04:00,34.9,26.1,29.70,WSW,254,4.0,10.0,70,0.00,,---,0.00,VWS V14.01,2013-01-01 05:04:00,
2013-01-01 00:09:00,35.0,26.2,29.70,WSW,248,3.0,8.0,70,0.00,,---,0.00,VWS V14.01,2013-01-01 05:09:00,
2013-01-01 00:14:00,35.1,26.3,29.70,WSW,247,1.0,10.0,70,0.00,,---,0.00,VWS V14.01,2013-01-01 05:14:00,
2013-01-01 00:19:00,35.1,26.3,29.70,WSW,257,5.0,10.0,70,0.00,,---,0.00,VWS V14.01,2013-01-01 05:19:00,
2013-01-01 00:24:00,35.1,26.3,29.69,WSW,244,0.0,9.0,70,0.00,,---,0.00,VWS V14.01,2013-01-01 05:24:00,
2013-01-01 00:29:00,35.1,26.3,29.69,West,263,5.0,10.0,70,0.00,,---,0.00,VWS V14.01,2013-01-01 05:29:00,
2013-01-01 00:34:00,35.1,26.7,29.69,West,271,2.0,7.0,71,0.00,,---,0.00,VWS V14.01,2013-01-01 05:34:00,
2013-01-01 00:39:00,35.1,26.7,29.68,SW,230,7.0,7.0,71,0.00,,---,0.00,VWS V14.01,2013-01-01 05:39:00,
2013-01-01 00:44:00,35.2,26.4,29.68,WSW,238,2.0,11.0,70,0.00,,---,0.00,VWS V14.01,2013-01-01 05:44:00,
2013-01-01 00:49:00,35.3,26.5,29.68,SW,230,4.0,13.0,70,0.00,,---,0.00,VWS V14.01,2013-01-01 05:49:00,
2013-01-01 00:59:00,35.5,26.7,29.68,WSW,239,3.0,14.0,70,0.00,,---,0.00,VWS V14.01,2013-01-01 05:59:00,
2013-01-01 01:09:00,35.5,26.7,29.68,WSW,243,3.0,13.0,70,0.00,,---,0.00,VWS V14.01,2013-01-01 06:09:00,
2013-01-01 01:19:00,35.5,26.7,29.68,SSW,213,6.0,14.0,70,0.00,,---,0.00,VWS V14.01,2013-01-01 06:19:00,
2013-01-01 01:24:00,35.6,26.8,29.68,WSW,249,7.0,18.0,70,0.00,,---,0.00,VWS V14.01,2013-01-01 06:24:00,
2013-01-01 01:29:00,35.5,26.7,29.68,WSW,244,7.0,18.0,70,0.00,,---,0.00,VWS V14.01,2013-01-01 06:29:00,
2013-01-01 01:34:00,35.5,26.7,29.68,SW,234,2.0,11.0,70,0.00,,---,0.00,VWS V14.01,2013-01-01 06:34:00,
2013-01-01 01:39:00,35.5,26.7,29.68,SSW,202,3.0,13.0,70,0.00,,---,0.00,VWS V14.01,2013-01-01 06:39:00,
2013-01-01 01:44:00,35.6,26.8,29.68,WSW,238,4.0,12.0,70,0.00,,---,0.00,VWS V14.01,2013-01-01 06:44:00,
2013-01-01 01:49:00,35.6,26.8,29.68,WSW,244,10.0,13.0,70,0.00,,---,0.00,VWS V14.01,2013-01-01 06:49:00,
2013-01-01 01:54:00,35.6,27.1,29.69,WSW,252,6.0,12.0,71,0.00,,---,0.00,VWS V14.01,2013-01-01 06:54:00,
2013-01-01 02:04:00,35.6,26.8,29.69,West,281,4.0,11.0,70,0.00,,---,0.00,VWS V14.01,2013-01-01 07:04:00,
2013-01-01 02:09:00,35.6,26.8,29.69,West,273,5.0,10.0,70,0.00,,---,0.00,VWS V14.01,2013-01-01 07:09:00,
2013-01-01 02:19:00,35.6,27.1,29.69,West,260,7.0,10.0,71,0.00,,---,0.00,VWS V14.01,2013-01-01 07:19:00,
2013-01-01 02:24:00,35.6,26.8,29.69,WSW,240,4.0,11.0,70,0.00,,---,0.00,VWS V14.01,2013-01-01 07:24:00,
2013-01-01 02:29:00,35.7,26.9,29.68,WSW,244,2.0,12.0,70,0.00,,---,0.00,VWS V14.01,2013-01-01 07:29:00,
2013-01-01 02:34:00,35.7,26.9,29.68,WSW,251,6.0,11.0,70,0.00,,---,0.00,VWS V14.01,2013-01-01 07:34:00,
2013-01-01 02:39:00,35.7,26.9,29.67,WSW,252,9.0,16.0,70,0.00,,---,0.00,VWS V14.01,2013-01-01 07:39:00,
2013-01-01 02:49:00,35.8,27.0,29.67,WSW,244,5.0,16.0,70,0.00,,---,0.00,VWS V14.01,2013-01-01 07:49:00,
2013-01-01 02:59:00,35.8,27.3,29.67,SW,223,1.0,11.0,71,0.00,,---,0.00,VWS V14.01,2013-01-01 07:59:00,
2013-01-01 03:04:00,35.7,26.9,29.67,WSW,242,3.0,11.0,70,0.00,,---,0.00,VWS V14.01,2013-01-01 08:04:00,
2013-01-01 03:09:00,35.8,27.3,29.67,SW,229,2.0,12.0,71,0.00,,---,0.00,VWS V14.01,2013-01-01 08:09:00,
2013-01-01 03:19:00,35.8,27.3,29.67,West,261,4.0,10.0,71,0.00,,---,0.00,VWS V14.01,2013-01-01 08:19:00,
2013-01-01 03:24:00,35.8,27.3,29.67,WSW,240,4.0,11.0,71,0.00,,---,0.00,VWS V14.01,2013-01-01 08:24:00,
2013-01-01 03:34:00,35.8,27.3,29.66,WSW,250,6.0,8.0,71,0.00,,---,0.00,VWS V14.01,2013-01-01 08:34:00,
2013-01-01 03:44:00,35.8,27.7,29.67,WSW,240,4.0,9.0,72,0.00,,---,0.00,VWS V14.01,2013-01-01 08:44:00,
2013-01-01 03:49:00,35.8,27.7,29.66,WSW,252,4.0,11.0,72,0.00,,---,0.00,VWS V14.01,2013-01-01 08:49:00,
2013-01-01 03:54:00,35.9,27.8,29.66,WSW,250,6.0,9.0,72,0.00,,---,0.00,VWS V14.01,2013-01-01 08:54:00,
2013-01-01 04:04:00,35.9,27.8,29.64,WSW,245,2.0,15.0,72,0.00,,---,0.00,VWS V14.01,2013-01-01 09:04:00,
2013-01-01 04:09:00,36.2,28.4,29.64,SW,227,5.0,10.0,73,0.00,,---,0.00,VWS V14.01,2013-01-01 09:09:00,
2013-01-01 04:14:00,36.2,28.1,29.64,WSW,248,4.0,13.0,72,0.00,,---,0.00,VWS V14.01,2013-01-01 09:14:00,
2013-01-01 04:19:00,36.2,28.1,29.64,West,274,3.0,10.0,72,0.00,,---,0.00,VWS V14.01,2013-01-01 09:19:00,
2013-01-01 04:29:00,36.2,27.7,29.64,West,260,3.0,13.0,71,0.00,,---,0.00,VWS V14.01,2013-01-01 09:29:00,
2013-01-01 04:34:00,35.9,27.8,29.65,SW,225,9.0,9.0,72,0.00,,---,0.00,VWS V14.01,2013-01-01 09:34:00,
2013-01-01 04:44:00,35.7,27.6,29.66,SW,221,5.0,14.0,72,0.00,,---,0.00,VWS V14.01,2013-01-01 09:44:00,
2013-01-01 04:49:00,35.7,27.6,29.65,SW,215,3.0,11.0,72,0.00,,---,0.00,VWS V14.01,2013-01-01 09:49:00,
2013-01-01 04:54:00,35.8,27.7,29.65,WSW,237,4.0,14.0,72,0.00,,---,0.00,VWS V14.01,2013-01-01 09:54:00,
2013-01-01 04:59:00,35.8,27.7,29.66,West,265,3.0,11.0,72,0.00,,---,0.00,VWS V14.01,2013-01-01 09:59:00,
2013-01-01 05:04:00,35.9,27.8,29.66,SW,229,4.0,10.0,72,0.00,,---,0.00,VWS V14.01,2013-01-01 10:04:00,
2013-01-01 05:14:00,36.1,28.0,29.65,SSW,207,4.0,11.0,72,0.00,,---,0.00,VWS V14.01,2013-01-01 10:14:00,
2013-01-01 05:19:00,36.1,28.0,29.65,SW,232,6.0,12.0,72,0.00,,---,0.00,VWS V14.01,2013-01-01 10:19:00,
2013-01-01 05:24:00,36.2,28.1,29.65,SW,219,3.0,14.0,72,0.00,,---,0.00,VWS V14.01,2013-01-01 10:24:00,
2013-01-01 05:29:00,36.3,28.1,29.65,West,269,4.0,16.0,72,0.00,,---,0.00,VWS V14.01,2013-01-01 10:29:00,
2013-01-01 05:34:00,36.2,28.1,29.65,West,275,4.0,12.0,72,0.00,,---,0.00,VWS V14.01,2013-01-01 10:34:00,
2013-01-01 05:39:00,36.3,28.1,29.65,WSW,242,7.0,11.0,72,0.00,,---,0.00,VWS V14.01,2013-01-01 10:39:00,
2013-01-01 05:49:00,36.4,28.2,29.66,WSW,257,2.0,18.0,72,0.00,,---,0.00,VWS V14.01,2013-01-01 10:49:00,
2013-01-01 05:54:00,36.4,28.2,29.66,SW,229,3.0,10.0,72,0.00,,---,0.00,VWS V14.01,2013-01-01 10:54:00,
2013-01-01 05:59:00,36.5,28.4,29.66,West,273,4.0,10.0,72,0.00,,---,0.00,VWS V14.01,2013-01-01 10:59:00,
2013-01-01 06:09:00,36.5,28.4,29.66,SW,223,2.0,9.0,72,0.00,,---,0.00,VWS V14.01,2013-01-01 11:09:00,
2013-01-01 06:14:00,36.5,28.4,29.65,WSW,237,6.0,17.0,72,0.00,,---,0.00,VWS V14.01,2013-01-01 11:14:00,
2013-01-01 06:19:00,36.6,28.4,29.66,WSW,246,9.0,17.0,72,0.00,,---,0.00,VWS V14.01,2013-01-01 11:19:00,
2013-01-01 06:24:00,36.7,28.2,29.66,WSW,254,11.0,19.0,71,0.00,,---,0.00,VWS V14.01,2013-01-01 11:24:00,
2013-01-01 06:34:00,36.5,28.4,29.66,WSW,244,8.0,15.0,72,0.00,,---,0.00,VWS V14.01,2013-01-01 11:34:00,
2013-01-01 06:39:00,36.5,29.7,29.66,WSW,250,3.0,13.0,76,0.00,,---,0.00,VWS V14.01,2013-01-01 11:39:00,
2013-01-01 06:44:00,36.5,28.4,29.66,West,271,3.0,14.0,72,0.00,,---,0.00,VWS V14.01,2013-01-01 11:44:00,
2013-01-01 06:49:00,36.5,29.7,29.66,WSW,251,6.0,16.0,76,0.00,,---,0.00,VWS V14.01,2013-01-01 11:49:00,
2013-01-01 06:59:00,36.5,29.7,29.67,WSW,250,4.0,16.0,76,0.00,,---,0.00,VWS V14.01,2013-01-01 11:59:00,
2013-01-01 07:04:00,36.4,28.2,29.67,WSW,238,9.0,11.0,72,0.00,,---,0.00,VWS V14.01,2013-01-01 12:04:00,
2013-01-01 07:14:00,36.2,28.4,29.67,WSW,245,7.0,11.0,73,0.00,,---,0.00,VWS V14.01,2013-01-01 12:14:00,
2013-01-01 07:24:00,36.3,28.1,29.66,WNW,300,6.0,13.0,72,0.00,,---,0.00,VWS V14.01,2013-01-01 12:24:00,
2013-01-01 07:29:00,36.3,28.1,29.66,WSW,240,5.0,14.0,72,0.00,,---,0.00,VWS V14.01,2013-01-01 12:29:00,
2013-01-01 07:34:00,36.3,28.5,29.67,WSW,244,10.0,13.0,73,0.00,,---,0.00,VWS V14.01,2013-01-01 12:34:00,
2013-01-01 07:39:00,36.4,28.6,29.67,WSW,252,1.0,12.0,73,0.00,,---,0.00,VWS V14.01,2013-01-01 12:39:00,
2013-01-01 07:49:00,36.6,28.4,29.67,WSW,246,7.0,11.0,72,0.00,,---,0.00,VWS V14.01,2013-01-01 12:49:00,
2013-01-01 07:54:00,36.7,28.5,29.68,WNW,300,7.0,13.0,72,0.00,,---,0.00,VWS V14.01,2013-01-01 12:54:00,
2013-01-01 08:04:00,37.0,28.1,29.67,WSW,248,5.0,10.0,70,0.00,,---,0.00,VWS V14.01,2013-01-01 13:04:00,
2013-01-01 08:09:00,37.2,28.3,29.68,WNW,294,5.0,19.0,70,0.00,,---,0.00,VWS V14.01,2013-01-01 13:09:00,
2013-01-01 08:19:00,37.6,28.4,29.68,West,273,1.0,14.0,69,0.00,,---,0.00,VWS V14.01,2013-01-01 13:19:00,
2013-01-01 08:24:00,37.6,28.4,29.68,West,261,8.0,17.0,69,0.00,,---,0.00,VWS V14.01,2013-01-01 13:24:00,
2013-01-01 08:34:00,37.5,27.9,29.68,WNW,288,5.0,14.0,68,0.00,,---,0.00,VWS V14.01,2013-01-01 13:34:00,
2013-01-01 08:44:00,37.8,25.6,29.68,NW,326,15.0,20.0,61,0.00,,---,0.00,VWS V14.01,2013-01-01 13:44:00,
2013-01-01 08:49:00,38.0,24.5,29.68,WNW,284,9.0,23.0,58,0.00,,---,0.00,VWS V14.01,2013-01-01 13:49:00,
2013-01-01 08:59:00,38.1,22.9,29.68,NW,319,4.0,29.0,54,0.00,,---,0.00,VWS V14.01,2013-01-01 13:59:00,
2013-01-01 09:09:00,38.0,22.9,29.68,WSW,250,10.0,31.0,54,0.00,,---,0.00,VWS V14.01,2013-01-01 14:09:00,
2013-01-01 09:14:00,38.0,23.3,29.69,NW,315,25.0,25.0,55,0.00,,---,0.00,VWS V14.01,2013-01-01 14:14:00,
2013-01-01 09:19:00,38.0,22.9,29.68,WSW,238,19.0,25.0,54,0.00,,---,0.00,VWS V14.01,2013-01-01 14:19:00,
2013-01-01 09:24:00,38.0,22.9,29.69,NW,324,5.0,21.0,54,0.00,,---,0.00,VWS V14.01,2013-01-01 14:24:00,
2013-01-01 09:29:00,37.9,22.8,29.69,West,267,12.0,25.0,54,0.00,,---,0.00,VWS V14.01,2013-01-01 14:29:00,
2013-01-01 09:39:00,37.9,22.3,29.69,WNW,300,26.0,26.0,53,0.00,,---,0.00,VWS V14.01,2013-01-01 14:39:00,
2013-01-01 09:44:00,37.7,22.1,29.69,West,264,19.0,26.0,53,0.00,,---,0.00,VWS V14.01,2013-01-01 14:44:00,
2013-01-01 09:49:00,37.7,22.1,29.69,NW,324,6.0,24.0,53,0.00,,---,0.00,VWS V14.01,2013-01-01 14:49:00,
2013-01-01 09:54:00,37.6,22.0,29.69,WNW,303,10.0,25.0,53,0.00,,---,0.00,VWS V14.01,2013-01-01 14:54:00,
2013-01-01 09:59:00,37.7,22.1,29.70,WNW,284,16.0,20.0,53,0.00,,---,0.00,VWS V14.01,2013-01-01 14:59:00,
2013-01-01 10:04:00,37.6,21.6,29.70,West,279,6.0,24.0,52,0.00,,---,0.00,VWS V14.01,2013-01-01 15:04:00,
2013-01-01 10:09:00,37.5,21.5,29.71,North,355,2.0,23.0,52,0.00,,---,0.00,VWS V14.01,2013-01-01 15:09:00,
2013-01-01 10:14:00,37.4,20.9,29.71,NW,319,14.0,29.0,51,0.00,,---,0.00,VWS V14.01,2013-01-01 15:14:00,
2013-01-01 10:24:00,37.4,20.9,29.71,WNW,283,5.0,23.0,51,0.00,,---,0.00,VWS V14.01,2013-01-01 15:24:00,
2013-01-01 10:29:00,37.3,20.9,29.71,NW,315,13.0,26.0,51,0.00,,---,0.00,VWS V14.01,2013-01-01 15:29:00,
2013-01-01 10:34:00,37.2,21.2,29.71,SW,235,9.0,25.0,52,0.00,,---,0.00,VWS V14.01,2013-01-01 15:34:00,
2013-01-01 10:39:00,37.1,20.7,29.71,NW,323,5.0,23.0,51,0.00,,---,0.00,VWS V14.01,2013-01-01 15:39:00,
2013-01-01 10:44:00,37.0,20.6,29.70,WNW,283,3.0,20.0,51,0.00,,---,0.00,VWS V14.01,2013-01-01 15:44:00,
2013-01-01 10:54:00,37.2,20.3,29.70,SW,230,14.0,27.0,50,0.00,,---,0.00,VWS V14.01,2013-01-01 15:54:00,
2013-01-01 10:59:00,37.1,20.2,29.70,WNW,303,12.0,23.0,50,0.00,,---,0.00,VWS V14.01,2013-01-01 15:59:00,
2013-01-01 11:09:00,36.9,19.5,29.70,WNW,295,12.0,28.0,49,0.00,,---,0.00,VWS V14.01,2013-01-01 16:09:00,
2013-01-01 11:14:00,36.9,19.5,29.69,West,268,15.0,27.0,49,0.00,,---,0.00,VWS V14.01,2013-01-01 16:14:00,
2013-01-01 11:19:00,36.6,19.7,29.69,West,280,5.0,24.0,50,0.00,,---,0.00,VWS V14.01,2013-01-01 16:19:00,
2013-01-01 11:29:00,36.6,19.7,29.69,WSW,240,14.0,25.0,50,0.00,,---,0.00,VWS V14.01,2013-01-01 16:29:00,
2013-01-01 11:39:00,36.2,19.8,29.70,WNW,286,11.0,19.0,51,0.00,,---,0.00,VWS V14.01,2013-01-01 16:39:00,
2013-01-01 11:44:00,36.1,19.7,29.70,NW,313,4.0,19.0,51,0.00,,---,0.00,VWS V14.01,2013-01-01 16:44:00,
2013-01-01 11:54:00,36.3,19.9,29.69,WNW,284,18.0,24.0,51,0.00,,---,0.00,VWS V14.01,2013-01-01 16:54:00,
2013-01-01 11:59:00,36.4,19.5,29.69,West,269,11.0,22.0,50,0.00,,---,0.00,VWS V14.01,2013-01-01 16:59:00,
2013-01-01 12:04:00,36.6,19.7,29.69,West,265,21.0,21.0,50,0.00,,---,0.00,VWS V14.01,2013-01-01 17:04:00,
2013-01-01 12:14:00,36.8,20.4,29.68,WNW,284,6.0,24.0,51,0.00,,---,0.00,VWS V14.01,2013-01-01 17:14:00,
2013-01-01 12:19:00,36.8,19.9,29.68,West,259,20.0,20.0,50,0.00,,---,0.00,VWS V14.01,2013-01-01 17:19:00,
2013-01-01 12:24:00,36.7,19.4,29.68,WNW,285,15.0,21.0,49,0.00,,---,0.00,VWS V14.01,2013-01-01 17:24:00,
2013-01-01 12:34:00,37.0,20.1,29.68,WSW,250,4.0,16.0,50,0.00,,---,0.00,VWS V14.01,2013-01-01 17:34:00,
2013-01-01 12:39:00,37.0,20.1,29.68,West,268,19.0,23.0,50,0.00,,---,0.00,VWS V14.01,2013-01-01 17:39:00,
2013-01-01 12:49:00,36.5,19.2,29.67,NW,304,13.0,18.0,49,0.00,,---,0.00,VWS V14.01,2013-01-01 17:49:00,
2013-01-01 12:54:00,36.5,18.7,29.67,West,276,13.0,16.0,48,0.00,,---,0.00,VWS V14.01,2013-01-01 17:54:00,
2013-01-01 12:59:00,36.6,18.8,29.67,West,276,15.0,22.0,48,0.00,,---,0.00,VWS V14.01,2013-01-01 17:59:00,
2013-01-01 13:04:00,36.5,18.7,29.67,WNW,303,5.0,28.0,48,0.00,,---,0.00,VWS V14.01,2013-01-01 18:04:00,
2013-01-01 13:09:00,36.2,18.9,29.68,WNW,283,2.0,24.0,49,0.00,,---,0.00,VWS V14.01,2013-01-01 18:09:00,
2013-01-01 13:14:00,36.2,19.4,29.67,NW,307,17.0,23.0,50,0.00,,---,0.00,VWS V14.01,2013-01-01 18:14:00,
2013-01-01 13:19:00,36.0,18.7,29.67,NW,310,4.0,21.0,49,0.00,,---,0.00,VWS V14.01,2013-01-01 18:19:00,
2013-01-01 13:29:00,36.0,18.7,29.67,West,261,6.0,23.0,49,0.00,,---,0.00,VWS V14.01,2013-01-01 18:29:00,
2013-01-01 13:34:00,36.2,18.4,29.66,West,276,13.0,25.0,48,0.00,,---,0.00,VWS V14.01,2013-01-01 18:34:00,
2013-01-01 13:44:00,36.0,18.2,29.66,WNW,292,5.0,23.0,48,0.00,,---,0.00,VWS V14.01,2013-01-01 18:44:00,
2013-01-01 13:54:00,35.9,17.6,29.67,WNW,286,4.0,24.0,47,0.00,,---,0.00,VWS V14.01,2013-01-01 18:54:00,
2013-01-01 13:59:00,35.7,18.0,29.67,West,269,16.0,20.0,48,0.00,,---,0.00,VWS V14.01,2013-01-01 18:59:00,
2013-01-01 14:04:00,35.5,17.8,29.67,West,271,20.0,28.0,48,0.00,,---,0.00,VWS V14.01,2013-01-01 19:04:00,
2013-01-01 14:09:00,35.4,17.7,29.67,WNW,282,6.0,24.0,48,0.00,,---,0.00,VWS V14.01,2013-01-01 19:09:00,
2013-01-01 14:19:00,35.0,17.8,29.68,WNW,294,8.0,16.0,49,0.00,,---,0.00,VWS V14.01,2013-01-01 19:19:00,
2013-01-01 14:29:00,34.8,17.6,29.68,NW,305,10.0,22.0,49,0.00,,---,0.00,VWS V14.01,2013-01-01 19:29:00,
2013-01-01 14:34:00,34.5,17.3,29.68,West,277,15.0,24.0,49,0.00,,---,0.00,VWS V14.01,2013-01-01 19:34:00,
2013-01-01 14:39:00,34.4,17.7,29.69,WNW,289,3.0,19.0,50,0.00,,---,0.00,VWS V14.01,2013-01-01 19:39:00,
2013-01-01 14:44:00,34.4,17.7,29.68,NW,312,4.0,23.0,50,0.00,,---,0.00,VWS V14.01,2013-01-01 19:44:00,
2013-01-01 14:49:00,34.4,17.7,29.68,West,259,10.0,20.0,50,0.00,,---,0.00,VWS V14.01,2013-01-01 19:49:00,
2013-01-01 14:59:00,34.6,17.9,29.68,West,263,3.0,14.0,50,0.00,,---,0.00,VWS V14.01,2013-01-01 19:59:00,
2013-01-01 15:04:00,34.7,18.0,29.68,WNW,283,6.0,17.0,50,0.00,,---,0.00,VWS V14.01,2013-01-01 20:04:00,
2013-01-01 15:14:00,34.8,17.6,29.68,NW,317,3.0,15.0,49,0.00,,---,0.00,VWS V14.01,2013-01-01 20:14:00,
2013-01-01 15:19:00,34.6,17.9,29.69,WNW,296,1.0,15.0,50,0.00,,---,0.00,VWS V14.01,2013-01-01 20:19:00,
2013-01-01 15:29:00,34.1,17.4,29.69,NW,309,4.0,17.0,50,0.00,,---,0.00,VWS V14.01,2013-01-01 20:29:00,
2013-01-01 15:39:00,33.6,17.4,29.69,WNW,288,2.0,14.0,51,0.00,,---,0.00,VWS V14.01,2013-01-01 20:39:00,
2013-01-01 15:49:00,33.3,17.6,29.69,West,262,16.0,16.0,52,0.00,,---,0.00,VWS V14.01,2013-01-01 20:49:00,
2013-01-01 15:54:00,33.2,17.5,29.70,NW,309,3.0,16.0,52,0.00,,---,0.00,VWS V14.01,2013-01-01 20:54:00,
2013-01-01 15:59:00,33.0,17.8,29.69,WNW,297,5.0,15.0,53,0.00,,---,0.00,VWS V14.01,2013-01-01 20:59:00,
2013-01-01 16:04:00,32.8,17.6,29.70,West,261,5.0,13.0,53,0.00,,---,0.00,VWS V14.01,2013-01-01 21:04:00,
2013-01-01 16:14:00,32.6,17.4,29.70,WNW,284,6.0,17.0,53,0.00,,---,0.00,VWS V14.01,2013-01-01 21:14:00,
2013-01-01 16:19:00,32.4,17.2,29.71,West,268,4.0,14.0,53,0.00,,---,0.00,VWS V14.01,2013-01-01 21:19:00,
2013-01-01 16:29:00,32.1,17.3,29.72,West,277,9.0,11.0,54,0.00,,---,0.00,VWS V14.01,2013-01-01 21:29:00,
2013-01-01 16:34:00,32.0,17.2,29.71,West,261,7.0,14.0,54,0.00,,---,0.00,VWS V14.01,2013-01-01 21:34:00,
2013-01-01 16:39:00,32.0,16.8,29.71,WNW,295,2.0,13.0,53,0.00,,---,0.00,VWS V14.01,2013-01-01 21:39:00,
2013-01-01 16:49:00,31.7,16.5,29.72,WNW,296,4.0,13.0,53,0.00,,---,0.00,VWS V14.01,2013-01-01 21:49:00,
2013-01-01 16:54:00,31.6,16.5,29.73,NW,304,5.0,15.0,53,0.00,,---,0.00,VWS V14.01,2013-01-01 21:54:00,
2013-01-01 17:04:00,31.5,15.9,29.72,WNW,286,6.0,27.0,52,0.00,,---,0.00,VWS V14.01,2013-01-01 22:04:00,
2013-01-01 17:09:00,31.5,15.9,29.73,WNW,298,4.0,14.0,52,0.00,,---,0.00,VWS V14.01,2013-01-01 22:09:00,
2013-01-01 17:14:00,31.4,15.8,29.73,WNW,303,2.0,15.0,52,0.00,,---,0.00,VWS V14.01,2013-01-01 22:14:00,
2013-01-01 17:24:00,31.1,16.4,29.75,NNW,345,2.0,6.0,54,0.00,,---,0.00,VWS V14.01,2013-01-01 22:24:00,
2013-01-01 17:29:00,30.9,15.8,29.75,WNW,303,3.0,11.0,53,0.00,,---,0.00,VWS V14.01,2013-01-01 22:29:00,
2013-01-01 17:34:00,30.8,16.1,29.75,NW,309,2.0,7.0,54,0.00,,---,0.00,VWS V14.01,2013-01-01 22:34:00,
2013-01-01 17:44:00,30.3,15.7,29.75,NW,308,11.0,18.0,54,0.00,,---,0.00,VWS V14.01,2013-01-01 22:44:00,
2013-01-01 17:54:00,29.9,15.3,29.76,NW,305,1.0,15.0,54,0.00,,---,0.00,VWS V14.01,2013-01-01 22:54:00,
2013-01-01 17:59:00,29.7,15.5,29.76,NW,309,7.0,12.0,55,0.00,,---,0.00,VWS V14.01,2013-01-01 22:59:00,
2013-01-01 18:04:00,29.6,15.4,29.76,NW,309,1.0,13.0,55,0.00,,---,0.00,VWS V14.01,2013-01-01 23:04:00,
2013-01-01 18:14:00,29.3,15.6,29.77,WNW,302,3.0,16.0,56,0.00,,---,0.00,VWS V14.01,2013-01-01 23:14:00,
2013-01-01 18:19:00,29.2,15.1,29.78,WNW,303,5.0,14.0,55,0.00,,---,0.00,VWS V14.01,2013-01-01 23:19:00,
2013-01-01 18:29:00,28.8,14.3,29.78,WNW,290,3.0,17.0,54,0.00,,---,0.00,VWS V14.01,2013-01-01 23:29:00,
2013-01-01 18:34:00,28.7,14.6,29.79,NW,325,3.0,14.0,55,0.00,,---,0.00,VWS V14.01,2013-01-01 23:34:00,
2013-01-01 18:39:00,28.5,14.4,29.80,West,267,5.0,12.0,55,0.00,,---,0.00,VWS V14.01,2013-01-01 23:39:00,
2013-01-01 18:44:00,28.3,13.8,29.80,West,265,5.0,16.0,54,0.00,,---,0.00,VWS V14.01,2013-01-01 23:44:00,
2013-01-01 18:49:00,28.1,13.6,29.80,West,272,1.0,17.0,54,0.00,,---,0.00,VWS V14.01,2013-01-01 23:49:00,
2013-01-01 18:59:00,27.8,13.3,29.80,NNW,329,1.0,11.0,54,0.00,,---,0.00,VWS V14.01,2013-01-01 23:59:00,
2013-01-01 19:04:00,27.6,13.6,29.80,West,272,6.0,10.0,55,0.00,,---,0.00,VWS V14.01,2013-01-02 00:04:00,
2013-01-01 19:09:00,27.4,13.4,29.80,North,355,3.0,12.0,55,0.00,,---,0.00,VWS V14.01,2013-01-02 00:09:00,
2013-01-01 19:14:00,27.2,12.8,29.81,WNW,288,1.0,15.0,54,0.00,,---,0.00,VWS V14.01,2013-01-02 00:14:00,
2013-01-01 19:24:00,27.0,13.0,29.81,NW,319,1.0,12.0,55,0.00,,---,0.00,VWS V14.01,2013-01-02 00:24:00,
2013-01-01 19:29:00,26.8,12.8,29.81,WNW,288,2.0,11.0,55,0.00,,---,0.00,VWS V14.01,2013-01-02 00:29:00,
2013-01-01 19:39:00,26.5,12.1,29.81,WNW,288,9.0,15.0,54,0.00,,---,0.00,VWS V14.01,2013-01-02 00:39:00,
2013-01-01 19:49:00,26.3,11.9,29.81,NNW,336,1.0,12.0,54,0.00,,---,0.00,VWS V14.01,2013-01-02 00:49:00,
2013-01-01 19:54:00,26.1,12.2,29.81,WNW,289,1.0,10.0,55,0.00,,---,0.00,VWS V14.01,2013-01-02 00:54:00,
2013-01-01 19:59:00,26.0,12.1,29.82,NW,309,3.0,10.0,55,0.00,,---,0.00,VWS V14.01,2013-01-02 00:59:00,
2013-01-01 20:04:00,25.9,11.1,29.82,NW,314,5.0,22.0,53,0.00,,---,0.00,VWS V14.01,2013-01-02 01:04:00,
2013-01-01 20:09:00,25.9,11.1,29.82,WNW,287,0.0,13.0,53,0.00,,---,0.00,VWS V14.01,2013-01-02 01:09:00,
2013-01-01 20:14:00,25.7,11.4,29.82,WNW,287,4.0,15.0,54,0.00,,---,0.00,VWS V14.01,2013-01-02 01:14:00,
2013-01-01 20:19:00,25.6,10.9,29.82,West,277,6.0,12.0,53,0.00,,---,0.00,VWS V14.01,2013-01-02 01:19:00,
2013-01-01 20:24:00,25.5,11.2,29.82,WNW,284,6.0,10.0,54,0.00,,---,0.00,VWS V14.01,2013-01-02 01:24:00,
2013-01-01 20:29:00,25.4,11.1,29.82,WSW,246,6.0,12.0,54,0.00,,---,0.00,VWS V14.01,2013-01-02 01:29:00,
2013-01-01 20:34:00,25.3,11.0,29.82,NW,321,4.0,11.0,54,0.00,,---,0.00,VWS V14.01,2013-01-02 01:34:00,
2013-01-01 20:44:00,25.0,11.1,29.82,NNW,339,7.0,13.0,55,0.00,,---,0.00,VWS V14.01,2013-01-02 01:44:00,
2013-01-01 20:49:00,24.8,10.1,29.82,WNW,286,9.0,19.0,53,0.00,,---,0.00,VWS V14.01,2013-01-02 01:49:00,
2013-01-01 20:59:00,24.5,10.2,29.82,West,276,11.0,13.0,54,0.00,,---,0.00,VWS V14.01,2013-01-02 01:59:00,
2013-01-01 21:04:00,24.4,10.1,29.82,WNW,285,2.0,14.0,54,0.00,,---,0.00,VWS V14.01,2013-01-02 02:04:00,
2013-01-01 21:09:00,24.2,10.0,29.83,WNW,287,2.0,17.0,54,0.00,,---,0.00,VWS V14.01,2013-01-02 02:09:00,
2013-01-01 21:19:00,23.9,10.1,29.83,WNW,293,5.0,15.0,55,0.00,,---,0.00,VWS V14.01,2013-01-02 02:19:00,
2013-01-01 21:24:00,23.8,10.0,29.83,NW,322,4.0,13.0,55,0.00,,---,0.00,VWS V14.01,2013-01-02 02:24:00,
2013-01-01 21:29:00,23.7,9.5,29.83,WNW,296,10.0,17.0,54,0.00,,---,0.00,VWS V14.01,2013-01-02 02:29:00,
2013-01-01 21:34:00,23.6,9.4,29.83,North,355,4.0,22.0,54,0.00,,---,0.00,VWS V14.01,2013-01-02 02:34:00,
2013-01-01 21:39:00,23.4,9.2,29.83,West,269,10.0,15.0,54,0.00,,---,0.00,VWS V14.01,2013-01-02 02:39:00,
2013-01-01 21:49:00,23.2,8.6,29.84,NW,317,3.0,16.0,53,0.00,,---,0.00,VWS V14.01,2013-01-02 02:49:00,
2013-01-01 21:59:00,22.9,8.3,29.83,West,281,7.0,20.0,53,0.00,,---,0.00,VWS V14.01,2013-01-02 02:59:00,
2013-01-01 22:04:00,22.8,8.2,29.84,NW,304,4.0,16.0,53,0.00,,---,0.00,VWS V14.01,2013-01-02 03:04:00,
2013-01-01 22:14:00,22.5,8.4,29.84,NNW,328,0.0,19.0,54,0.00,,---,0.00,VWS V14.01,2013-01-02 03:14:00,
2013-01-01 22:19:00,22.4,8.3,29.84,WSW,249,12.0,20.0,54,0.00,,---,0.00,VWS V14.01,2013-01-02 03:19:00,
2013-01-01 22:24:00,22.2,8.1,29.84,NW,304,10.0,16.0,54,0.00,,---,0.00,VWS V14.01,2013-01-02 03:24:00,
2013-01-01 22:29:00,22.1,8.0,29.85,WNW,300,15.0,16.0,54,0.00,,---,0.00,VWS V14.01,2013-01-02 03:29:00,
2013-01-01 22:34:00,22.0,7.9,29.85,NW,317,4.0,20.0,54,0.00,,---,0.00,VWS V14.01,2013-01-02 03:34:00,
2013-01-01 22:39:00,21.9,7.8,29.85,NW,319,4.0,22.0,54,0.00,,---,0.00,VWS V14.01,2013-01-02 03:39:00,
2013-01-01 22:44:00,21.8,7.7,29.85,West,269,8.0,15.0,54,0.00,,---,0.00,VWS V14.01,2013-01-02 03:44:00,
2013-01-01 22:49:00,21.7,7.6,29.86,NW,306,5.0,17.0,54,0.00,,---,0.00,VWS V14.01,2013-01-02 03:49:00,
2013-01-01 22:54:00,21.6,7.9,29.86,WSW,239,4.0,13.0,55,0.00,,---,0.00,VWS V14.01,2013-01-02 03:54:00,
2013-01-01 22:59:00,21.6,7.9,29.86,WNW,294,4.0,16.0,55,0.00,,---,0.00,VWS V14.01,2013-01-02 03:59:00,
2013-01-01 23:09:00,21.3,7.7,29.87,WNW,291,4.0,19.0,55,0.00,,---,0.00,VWS V14.01,2013-01-02 04:09:00,
2013-01-01 23:14:00,21.2,8.0,29.87,NW,306,5.0,14.0,56,0.00,,---,0.00,VWS V14.01,2013-01-02 04:14:00,
2013-01-01 23:19:00,21.0,7.4,29.87,NW,309,9.0,14.0,55,0.00,,---,0.00,VWS V14.01,2013-01-02 04:19:00,
2013-01-01 23:24:00,20.9,7.3,29.87,WNW,302,3.0,15.0,55,0.00,,---,0.00,VWS V14.01,2013-01-02 04:24:00,
2013-01-01 23:34:00,20.7,7.1,29.86,West,272,3.0,13.0,55,0.00,,---,0.00,VWS V14.01,2013-01-02 04:34:00,
2013-01-01 23:39:00,20.7,7.1,29.86,West,277,12.0,13.0,55,0.00,,---,0.00,VWS V14.01,2013-01-02 04:39:00,
2013-01-01 23:44:00,20.6,7.0,29.86,NW,319,8.0,21.0,55,0.00,,---,0.00,VWS V14.01,2013-01-02 04:44:00,
2013-01-01 23:49:00,20.5,6.9,29.87,WNW,303,2.0,16.0,55,0.00,,---,0.00,VWS V14.01,2013-01-02 04:49:00,
2013-01-01 23:59:00,20.2,7.0,29.86,WNW,292,4.0,14.0,56,0.00,,---,0.00,VWS V14.01,2013-01-02 04:59:00,